sat.trackr.live / text

‹ back to catalog

STARLINK-5381

NORAD 54828 · 2022-177J

PAYLOAD ACTIVE UNKNOWN

§ Identity

Operator
Country
US
Launch date
2022-12-28
Launch site
AFETR
Launch vehicle
Mass (kg)
RCS (m²)

Purposes: comms

External: N2YO · Heavens-Above · Gunter

§ Orbital elements

Epoch: 2026-05-25T01:54:19.017792Z

Period
94.27 min
Inclination
43.0034°
Eccentricity
0.0000706
Mean motion
15.27569780 rev/d
Perigee alt
482.6 km
Apogee alt
483.6 km
Semi-major
6,861.2 km
B*
6.3114e-5
RAAN
64.8651°
Arg perigee
225.6878°
Mean anomaly
134.3916°
Rev number
18,860

§ Raw data

STARLINK-53811 54828U 22177J   26145.07938678  .00001475  00000+0  63114-4 0  99972 54828  43.0034  64.8651 0000706 225.6878 134.3916 15.27569780188604

JSON: /api/v1/satellites/54828 · /tle

For live sub-satellite position, see the globe view (requires WebGL).

§ Visibility from observer

Set your observer location to see the next 7 days of passes ≥ 10°. The values pass through the URL so the page stays shareable.

No JS? Fill the form by hand. The geolocation button needs JavaScript.